Location: �clusier
(49.9361°N, 2.7869°E)
Time: 00:16:55
(UTC+00:00)

Cosmos 1331 Rocket - Pass Details

Date: 31 October 2021
Orbit: 749 x 778 km, 74.0° (Epoch: 30 November)

Event Time Altitude Azimuth Distance (km) Brightness Sun altitude
Exits shadow 03:32:34 - 347° (NNW) 2,996 7.1 -29.9°
Reaches altitude 10° 03:35:10 10° 5° (N) 2,314 6.7 -29.5°
Maximum altitude 03:38:18 16° 42° (NE) 1,946 6.7 -29.0°
Drops below altitude 10° 03:41:26 10° 79° (E) 2,318 7.4 -28.5°
Sets 03:44:48 0° 101° (ESE) 3,247 8.3 -28.0°
